Preview of NWS' New Version of Forecast
This preview is not operational and should not be used for support decisions.

Regional Weather Roundup (RWR)

Issued by Bismarck, ND (BIS)

                            
000
ASUS43 KBIS 200710
RWRBIS

NWR BROADCAST TEXT
NATIONAL WEATHER SERVICE BISMARCK ND
200 AM CDT MON MAY 20 2019

NOTE: "FAIR" INDICATES FEW OR NO CLOUDS BELOW 12,000 FEET WITH NO
SIGNIFICANT WEATHER AND/OR OBSTRUCTIONS TO VISIBILITY.

  
CITY           SKY/WX    TMP DP  RH WIND       PRES   REMARKS
WILLISTON      MOCLDY    47  32  56 SE3       30.11S                  
MINOT          CLEAR     36  26  67 N7        30.11F                  
MINOT AFB      CLEAR     30  23  74 CALM      30.11S                  
BISMARCK       MOCLDY    41  38  89 CALM      30.11F                  
DICKINSON      NOT AVBL                                               
GARRISON         N/A     39  29  67 NE3       30.11S                  
HETTINGER ARPT MOCLDY    32  30  92 CALM      30.09F                  
JAMESTOWN      CLEAR     36  32  85 W6        30.09S                  
CARRINGTON     FAIR      36  30  80 CALM      30.12S                  
HAZEN          CLOUDY    36  36 100 S5        30.13S                  
MANDAN         CLOUDY    39  39 100 W6        30.11F                  
OAKES          FAIR      39  39 100 SW10      30.11S                  
RUGBY          FAIR      36  28  75 CALM      30.12S                  
STANLEY        FAIR      36  27  69 CALM      30.13R                  
TIOGA          FAIR      36  25  64 CALM      30.14S                  
WATFORD CITY   FAIR      43  36  75 CALM      30.10F                  
$$
  
CITY           SKY/WX    TMP DP  RH WIND       PRES   REMARKS
GRAND FORKS    MOCLDY    38  25  59 W6        30.09S                  
GRAND FORKS AF CLEAR     43  25  49 W2        30.13S                  
DEVILS LAKE    PTCLDY    36  29  75 N7        30.12S                  
FARGO          MOCLDY    39  38  96 CALM      30.08F                  
CANDO          FAIR      34  27  75 N8        30.14S                  
CAVALIER       FAIR      39  28  65 CALM      30.10R                  
GRAFTON        FAIR      46  32  57 W6        30.12R                  
GWINNER          N/A     39  39 100 SW9       30.10S                  
LANGDON        FAIR     N/A N/A N/A CALM      30.12S                  
ROLLA          FAIR      36  25  64 NW9       30.14S                  
WALHALLA       PTSUNNY   41  30  65 W3        30.11S                  
$$
  
CITY           SKY/WX    TMP DP  RH WIND       PRES   REMARKS
ABERDEEN       MOCLDY    39  37  92 S6        30.13S                  
MOBRIDGE       CLOUDY    45  39  79 CALM      30.08F                  
BUFFALO          N/A     38  32  79 E8        30.04F                  
RAPID CITY     CLOUDY    37  34  89 CALM      30.08S                  
GLASGOW        PTCLDY    39  31  72 E7        30.07F                  
SIDNEY         CLOUDY    43  37  79 N3        30.11R                  
WOLF POINT     MOCLDY    43  37  79 CALM      30.10S                  
GLENDIVE       PTCLDY    35  31  85 NE5       30.10S                  
MILES CITY     PTCLDY    38  32  79 NE7       30.05F                  
BAKER          PTCLDY    33  30  88 CALM      30.09S                  
$$
  
CITY           SKY/WX    TMP DP  RH WIND       PRES   REMARKS
BILLINGS       CLOUDY    41  31  67 E14       29.96F                  
GREAT FALLS    CLOUDY    41  31  67 E15       29.94F                  
REGINA         PTCLDY    46  30  53 E14       30.14F                  
ESTEVAN        CLOUDY    39  30  70 E6        30.14S                  
$$